Weather History for KHXD - September, 2013

Change the Weather History Date:

Thursday, September 12, 2013

  Actual Average Record
Temperature  
Mean Temperature 78 °F -  
Max Temperature 84 °F 85 °F 93 °F (1984)
Min Temperature 73 °F 68 °F 53 °F (1976)
Cooling Degree Days 14    
Growing Degree Days 28 (Base 50)    
Moisture  
Dew Point 72 °F    
Average Humidity 87    
Maximum Humidity 100    
Minimum Humidity 54    
Precipitation  
Precipitation 0.00 in - - ()
Sea Level Pressure  
Sea Level Pressure 30.02 in    
Wind  
Wind Speed 1 mph (SSE)    
Max Wind Speed 9 mph    
Max Gust Speed -    
Visibility 9 miles    
Events      
Averages and records for this station are not official NWS values.
T = Trace of Precipitation, MM = Missing Value Source: NWS Daily Summary

Daily Weather History Graph

Daily Weather History Graph

Search for Another Location

Airport or City:

Trip Planner

Search our weather history database for the weather conditions in past years. The results will help you decide how hot, cold, wet, or windy it might be!

Date:

Astronomy

Sep. 12, 2013 Rise Set
Actual Time 7:04 AM EDT 7:32 PM EDT
Civil Twilight 6:40 AM EDT 7:57 PM EDT
Nautical Twilight 6:11 AM EDT 8:25 PM EDT
Astronomical Twilight 5:42 AM EDT 8:55 PM EDT
Moon 2:08 PM EDT (9/12) No Moon Set
Length of Visible Light 13h 16m
Length of Day
12h 27m
Waxing Crescent, 50% of the Moon is Illuminated
Sep 12
Waxing Crescent
Sep 12
First Quarter
Sep 19
Full
Sep 26
Last Quarter
Oct 4
New

Hourly Weather History & Observations

Time (EDT) Temp. Heat Index Dew Point Humidity Pressure Visibility Wind Dir Wind Speed Gust Speed Precip Events Conditions
12:15 AM 78.8 °F - 71.6 °F 78% 30.10 in 10.0 mi Calm Calm - 0.00 in   Partly Cloudy
12:35 AM 77.0 °F - 71.6 °F 83% 30.09 in 10.0 mi Calm Calm - 0.00 in   Partly Cloudy
12:55 AM 75.2 °F - 71.6 °F 89% 30.09 in 10.0 mi Calm Calm - 0.00 in   Partly Cloudy
1:15 AM 75.2 °F - 73.4 °F 94% 30.09 in 10.0 mi Calm Calm - 0.00 in   Scattered Clouds
1:35 AM 75.2 °F - 73.4 °F 94% 30.08 in 10.0 mi Calm Calm - 0.00 in   Partly Cloudy
1:55 AM 73.4 °F - 73.4 °F 100% 30.08 in 10.0 mi Calm Calm - 0.00 in   Partly Cloudy
2:15 AM 73.4 °F - 73.4 °F 100% 30.07 in 10.0 mi Calm Calm - 0.00 in   Scattered Clouds
2:35 AM 73.4 °F - 73.4 °F 100% 30.07 in 10.0 mi Calm Calm - 0.00 in   Partly Cloudy
2:55 AM 73.4 °F - 73.4 °F 100% 30.07 in 10.0 mi Calm Calm - 0.00 in   Clear
3:15 AM 73.4 °F - 73.4 °F 100% 30.07 in 10.0 mi Calm Calm - 0.00 in   Clear
3:35 AM 73.4 °F - 73.4 °F 100% 30.07 in 10.0 mi Calm Calm - 0.00 in   Partly Cloudy
3:55 AM 73.4 °F - 73.4 °F 100% 30.06 in 10.0 mi Calm Calm - 0.00 in   Partly Cloudy
4:15 AM 73.4 °F - 73.4 °F 100% 30.06 in 9.0 mi Calm Calm - 0.00 in   Clear
4:35 AM 73.4 °F - 73.4 °F 100% 30.05 in 9.0 mi Calm Calm - 0.00 in   Clear
4:55 AM 73.4 °F - 73.4 °F 100% 30.05 in 7.0 mi Calm Calm - 0.00 in   Clear
5:15 AM 73.4 °F - 73.4 °F 100% 30.05 in 7.0 mi Calm Calm - 0.00 in   Clear
5:35 AM 73.4 °F - 73.4 °F 100% 30.06 in 5.0 mi Calm Calm - 0.00 in   Clear
5:55 AM 73.4 °F - 73.4 °F 100% 30.06 in 5.0 mi Calm Calm - 0.00 in   Clear
6:15 AM 73.4 °F - 71.6 °F 94% 30.06 in 5.0 mi Calm Calm - 0.00 in   Clear
6:35 AM 73.4 °F - 73.4 °F 100% 30.05 in 7.0 mi Calm Calm - 0.00 in   Clear
7:55 AM 77.0 °F - 71.6 °F 83% 30.07 in 10.0 mi Calm Calm - N/A   Clear
9:50 AM 78.8 °F - 71.6 °F 78% 30.07 in 10.0 mi North 9.2 mph - N/A   Partly Cloudy
10:50 AM 80.6 °F 83.9 °F 69.8 °F 70% 30.06 in 10.0 mi North 5.8 mph - N/A   Clear
11:55 AM 84.2 °F 86.6 °F 66.2 °F 55% 30.05 in 10.0 mi North 5.8 mph - N/A   Clear
12:50 PM 84.2 °F 87.3 °F 68.0 °F 58% 30.03 in 10.0 mi North 4.6 mph - N/A   Partly Cloudy
1:50 PM 84.2 °F 87.3 °F 68.0 °F 58% 30.02 in 10.0 mi North 6.9 mph - N/A   Partly Cloudy
2:51 PM 84.2 °F 87.3 °F 68.0 °F 58% 29.99 in 10.0 mi SE 6.9 mph - N/A   Partly Cloudy
3:50 PM 82.4 °F 83.9 °F 64.4 °F 54% 29.96 in 10.0 mi SSE 5.8 mph - N/A   Clear
4:50 PM 82.4 °F 83.9 °F 64.4 °F 54% 29.93 in 10.0 mi SSE 8.1 mph - N/A   Clear
5:45 PM 82.4 °F 84.6 °F 66.2 °F 58% 29.93 in 10.0 mi South 8.1 mph - N/A   Clear
6:50 PM 80.6 °F 83.2 °F 68.0 °F 65% 29.92 in 10.0 mi South 4.6 mph - N/A   Clear
7:50 PM 77.0 °F - 71.6 °F 83% 29.92 in 10.0 mi Calm Calm - N/A   Clear
9:15 PM 75.2 °F - 71.6 °F 89% 29.94 in 10.0 mi Calm Calm - 0.00 in   Clear
9:35 PM 75.2 °F - 73.4 °F 94% 29.94 in 10.0 mi South 3.5 mph - 0.00 in   Clear
9:55 PM 75.2 °F - 73.4 °F 94% 29.94 in 10.0 mi Calm Calm - 0.00 in   Clear
10:15 PM 75.2 °F - 73.4 °F 94% 29.94 in 10.0 mi Calm Calm - 0.00 in   Clear
10:35 PM 75.2 °F - 73.4 °F 94% 29.94 in 10.0 mi South 3.5 mph - 0.00 in   Clear
10:55 PM 75.2 °F - 73.4 °F 94% 29.93 in 10.0 mi Calm Calm - 0.00 in   Clear
11:15 PM 75.2 °F - 73.4 °F 94% 29.93 in 10.0 mi Calm Calm - 0.00 in   Clear
11:35 PM 75.2 °F - 73.4 °F 94% 29.92 in 10.0 mi South 3.5 mph - 0.00 in   Clear
11:55 PM 75.2 °F - 73.4 °F 94% 29.93 in 10.0 mi SSW 4.6 mph - 0.00 in   Clear